DW1174 Weather Reports


time (UTC)temp
C
wind
direction
speed
KPH
gust
KPH
rain 1hr
cm
rain 24hr
cm
rain mn
cm
humidity
%
barometer
mb
20260504010251 13 175 3.2 16.1 0.00 0.00 0.00 48 1010.1
20260504005716 13 176 3.2 9.7 0.00 0.00 0.00 48 1010.0
20260504005147 13 174 1.6 9.7 0.00 0.00 0.00 48 1010.0
20260504004647 13 163 1.6 8.0 0.00 0.00 0.00 48 1010.0
20260504004415 13 178 3.2 11.3 0.00 0.00 0.00 47 1010.0
20260504003637 13 182 4.8 16.1 0.00 0.00 0.00 47 1010.0
20260504003139 13 193 3.2 16.1 0.00 0.00 0.00 47 1010.1
20260504002623 13 155 3.2 8.0 0.00 0.00 0.00 48 1010.0
20260504002346 13 162 3.2 11.3 0.00 0.00 0.00 49 1009.9
20260504001613 13 158 4.8 11.3 0.00 0.00 0.00 48 1010.0
20260504001115 13 179 6.4 17.7 0.00 0.00 0.00 48 1010.0
20260504000552 13 176 4.8 17.7 0.00 0.00 0.00 47 1010.0
20260504000300 13 170 4.8 17.7 0.00 0.00 0.00 48 1009.9
20260504000032 13 207 4.8 17.7 0.00 0.00 0.00 47 1009.9
20260503235017 13 166 3.2 12.9 0.00 0.00 0.00 48 1010.0
20260503234520 13 168 4.8 12.9 0.00 0.00 0.00 47 1010.1
20260503234005 13 208 4.8 14.5 0.00 0.00 0.00 47 1010.1
20260503233502 13 196 4.8 14.5 0.00 0.00 0.00 48 1010.2
20260503232938 14 215 4.8 14.5 0.00 0.00 0.00 48 1010.4
20260503232437 14 190 6.4 20.9 0.00 0.00 0.00 48 1010.3
20260503231913 14 188 4.8 20.9 0.00 0.00 0.00 47 1010.3
20260503231351 14 227 3.2 11.3 0.00 0.00 0.00 47 1010.2
20260503230843 14 217 3.2 14.5 0.00 0.00 0.00 48 1010.3
20260503230325 14 272 4.8 17.7 0.00 0.00 0.00 46 1010.4
20260503230049 14 166 6.4 22.5 0.00 0.00 0.00 47 1010.4
20260503225319 14 248 4.8 22.5 0.00 0.00 0.00 47 1010.3
20260503224813 14 220 3.2 17.7 0.00 0.00 0.00 47 1010.3
20260503224251 14 188 3.2 9.7 0.00 0.00 0.00 48 1010.4
20260503223754 14 276 4.8 9.7 0.00 0.00 0.00 47 1010.5
20260503223222 14 173 4.8 17.7 0.00 0.00 0.00 47 1010.6
20260503222649 14 178 4.8 16.1 0.00 0.00 0.00 46 1010.5
20260503222149 14 226 4.8 16.1 0.00 0.00 0.00 47 1010.6
20260503221620 14 246 3.2 16.1 0.00 0.00 0.00 45 1010.5
20260503221119 14 205 3.2 11.3 0.00 0.00 0.00 45 1010.6
20260503220555 14 182 4.8 14.5 0.00 0.00 0.00 45 1010.7
20260503220055 15 175 4.8 14.5 0.00 0.00 0.00 46 1010.7
20260503215539 15 208 4.8 14.5 0.00 0.00 0.00 45 1010.7
20260503215031 15 202 4.8 14.5 0.00 0.00 0.00 45 1010.7
20260503214727 15 168 4.8 20.9 0.00 0.00 0.00 46 1010.7
20260503213934 15 223 4.8 20.9 0.00 0.00 0.00 46 1010.7
20260503213405 15 166 4.8 17.7 0.00 0.00 0.00 45 1010.6
20260503212855 15 219 6.4 11.3 0.00 0.00 0.00 44 1010.5
20260503212330 15 214 6.4 20.9 0.00 0.00 0.00 45 1010.5
20260503211757 15 193 6.4 20.9 0.00 0.00 0.00 45 1010.6
20260503211300 15 171 4.8 11.3 0.00 0.00 0.00 47 1010.6
20260503210730 15 173 4.8 17.7 0.00 0.00 0.00 46 1010.6
20260503210230 15 169 6.4 17.7 0.00 0.00 0.00 47 1010.6
20260503205925 15 187 9.7 27.4 0.00 0.00 0.00 46 1010.6
20260503205201 15 173 8.0 27.4 0.00 0.00 0.00 45 1010.7
20260503204630 15 209 6.4 17.7 0.00 0.00 0.00 45 1010.8
20260503204122 15 174 4.8 24.1 0.00 0.00 0.00 45 1010.8
20260503203600 15 202 6.4 24.1 0.00 0.00 0.00 45 1010.7
20260503203026 15 166 8.0 20.9 0.00 0.00 0.00 44 1010.8
20260503202530 15 211 6.4 16.1 0.00 0.00 0.00 45 1011.0
20260503202016 15 151 4.8 24.1 0.00 0.00 0.00 45 1010.8
20260503201520 15 164 6.4 24.1 0.00 0.00 0.00 45 1011.1
20260503200945 15 197 6.4 16.1 0.00 0.00 0.00 45 1011.1
20260503200713 15 196 4.8 16.1 0.00 0.00 0.00 44 1011.1
20260503195939 15 319 4.8 19.3 0.00 0.00 0.00 44 1011.4
20260503195442 16 185 4.8 19.3 0.00 0.00 0.00 44 1011.5
20260503194932 16 163 1.6 9.7 0.00 0.00 0.00 46 1011.6
20260503194430 16 160 3.2 11.3 0.00 0.00 0.00 45 1011.7
20260503193906 15 284 4.8 16.1 0.00 0.00 0.00 44 1011.7
20260503193341 16 215 6.4 17.7 0.00 0.00 0.00 43 1012.0
20260503193113 15 183 6.4 17.7 0.00 0.00 0.00 44 1011.9
20260503192319 16 190 6.4 29.0 0.00 0.00 0.00 43 1012.0
20260503191819 16 196 6.4 29.0 0.00 0.00 0.00 43 1012.0
20260503191322 16 292 4.8 20.9 0.00 0.00 0.00 44 1012.1
20260503190805 16 268 4.8 20.9 0.00 0.00 0.00 43 1012.0
20260503190256 15 227 3.2 14.5 0.00 0.00 0.00 44 1012.2
20260503185736 15 203 3.2 14.5 0.00 0.00 0.00 45 1012.2
20260503185233 15 211 4.8 11.3 0.00 0.00 0.00 44 1012.3
20260503184722 15 225 3.2 11.3 0.00 0.00 0.00 45 1012.4
20260503184206 15 195 3.2 11.3 0.00 0.00 0.00 45 1012.5
20260503183708 15 190 4.8 11.3 0.00 0.00 0.00 44 1012.5
20260503183204 15 178 4.8 16.1 0.00 0.00 0.00 44 1012.5
20260503182709 15 238 4.8 16.1 0.00 0.00 0.00 42 1012.6
20260503182144 15 236 4.8 24.1 0.00 0.00 0.00 42 1012.7
20260503181905 15 246 6.4 24.1 0.00 0.00 0.00 42 1012.9
20260503181359 15 279 6.4 24.1 0.00 0.00 0.00 42 1012.8
20260503180632 16 211 4.8 24.1 0.00 0.00 0.00 40 1013.0
20260503180333 16 209 6.4 16.1 0.00 0.00 0.00 40 1013.0
20260503175543 16 196 4.8 16.1 0.00 0.00 0.00 43 1013.1
20260503175037 16 288 3.2 8.0 0.00 0.00 0.00 45 1013.1
20260503174534 16 150 3.2 9.7 0.00 0.00 0.00 43 1013.2
20260503174027 16 263 4.8 14.5 0.00 0.00 0.00 41 1013.0
20260503173527 15 193 6.4 16.1 0.00 0.00 0.00 42 1013.1
20260503173022 15 198 4.8 16.1 0.00 0.00 0.00 44 1013.1
20260503172501 15 275 4.8 16.1 0.00 0.00 0.00 44 1013.2
20260503172224 15 261 4.8 22.5 0.00 0.00 0.00 43 1013.4
20260503171430 15 295 3.2 20.9 0.00 0.00 0.00 39 1013.4
20260503170920 15 249 3.2 17.7 0.00 0.00 0.00 44 1013.5
20260503170638 15 229 3.2 16.1 0.00 0.00 0.00 44 1013.5
20260503150559 12 215 4.8 20.9 0.00 0.00 0.00 47 1014.4
20260503150546 12 233 4.8 17.7 0.00 0.00 0.00 47 1014.4
20260503130948 7 252 4.8 12.9 0.00 0.00 0.00 58 1014.3
20260503130449 7 189 4.8 9.7 0.00 0.00 0.00 59 1014.5
20260503110710 2 186 4.8 8.0 0.00 0.03 0.00 81 1013.2
20260503110144 2 186 4.8 8.0 0.00 0.03 0.00 81 1013.2
20260503110133 2 186 4.8 8.0 0.00 0.03 0.00 81 1013.1
20260503090434 2 190 0.0 6.4 0.00 0.03 0.00 83 1013.1
20260503080858 2 190 1.6 6.4 0.00 0.08 0.00 86 1013.1
20260503080312 2 190 1.6 6.4 0.00 0.08 0.00 86 1013.1
20260503072733 1 190 0.0 0.0 0.00 0.10 0.00 87 1013.0
20260503071915 1 190 0.0 0.0 0.00 0.10 0.00 87 1013.1
20260503071421 1 190 0.0 0.0 0.00 0.10 0.00 87 1013.0
20260503070840 1 190 0.0 0.0 0.00 0.10 0.00 87 1013.1
20260503070252 1 190 0.0 0.0 0.00 0.10 0.00 87 1013.1
20260503060128 1 273 0.0 0.0 0.00 0.10 0.00 86 1013.3
20260503055034 1 273 0.0 0.0 0.00 0.13 0.00 86 1013.5
20260503054517 1 273 0.0 0.0 0.00 0.13 0.00 85 1013.5
20260503053935 2 273 0.0 0.0 0.00 0.13 0.00 85 1013.4
20260503053621 2 273 0.0 0.0 0.00 0.13 0.00 84 1013.5
20260503052806 2 273 0.0 0.0 0.00 0.13 0.00 84 1013.5
20260503052229 2 273 0.0 0.0 0.00 0.13 0.00 84 1013.6
20260503051941 2 273 0.0 0.0 0.00 0.13 0.00 84 1013.6
20260503051412 2 273 0.0 0.0 0.00 0.13 0.00 84 1013.6
20260503050654 2 273 0.0 0.0 0.00 0.13 0.00 85 1013.7
20260503050119 2 273 0.0 0.0 0.00 0.15 0.00 85 1013.7
20260503045539 2 273 0.0 0.0 0.00 0.15 0.00 85 1013.7
20260503044959 2 273 0.0 0.0 0.00 0.15 0.00 86 1013.7
20260503044449 2 273 0.0 0.0 0.00 0.15 0.00 86 1013.8
20260503044439 2 273 0.0 0.0 0.00 0.15 0.00 86 1013.8
20260503043634 2 273 0.0 0.0 0.00 0.15 0.00 86 1013.8
20260503042841 2 273 0.0 0.0 0.00 0.18 0.00 86 1013.7
20260503042530 2 273 0.0 0.0 0.00 0.18 0.00 86 1013.8
20260503041731 2 273 0.0 0.0 0.00 0.20 0.00 85 1013.8
20260503041156 3 273 0.0 0.0 0.00 0.20 0.00 85 1014.0
20260503040622 3 273 0.0 0.0 0.00 0.20 0.00 85 1014.0
20260503040041 3 273 0.0 0.0 0.00 0.23 0.00 84 1014.0
20260503035514 3 273 0.0 0.0 0.00 0.23 0.23 84 1014.1
20260503034937 3 273 0.0 0.0 0.00 0.23 0.23 84 1014.0
20260503034400 3 273 0.0 0.0 0.00 0.23 0.23 83 1014.0
20260503033826 3 273 0.0 0.0 0.00 0.23 0.23 83 1014.1
20260503033528 3 273 0.0 0.0 0.00 0.23 0.23 83 1014.1
20260503032722 3 273 0.0 0.0 0.00 0.23 0.23 82 1014.1
20260503032209 3 273 0.0 0.0 0.00 0.23 0.23 83 1014.3
20260503031643 3 273 0.0 0.0 0.00 0.23 0.23 82 1014.3
20260503031105 4 273 0.0 0.0 0.00 0.23 0.23 82 1014.3
20260503030538 4 273 0.0 0.0 0.00 0.23 0.23 81 1014.4
20260503025959 4 273 0.0 0.0 0.00 0.23 0.23 81 1014.4
20260503025434 4 273 0.0 0.0 0.00 0.23 0.23 80 1014.5
20260503024859 4 273 0.0 0.0 0.00 0.23 0.23 80 1014.5
20260503024326 4 273 0.0 0.0 0.00 0.23 0.23 80 1014.6
20260503023755 4 273 0.0 0.0 0.00 0.23 0.23 80 1014.7
20260503023223 4 273 0.0 0.0 0.00 0.23 0.23 79 1014.8
20260503022707 4 273 0.0 0.0 0.00 0.23 0.23 79 1014.8
20260503022135 4 273 0.0 0.0 0.00 0.23 0.23 78 1014.8
20260503021845 4 273 0.0 0.0 0.00 0.23 0.23 78 1014.7
20260503021047 4 273 0.0 0.0 0.00 0.23 0.23 77 1014.7
20260503020523 4 273 0.0 0.0 0.00 0.23 0.23 77 1014.7
20260503015951 4 273 0.0 0.0 0.00 0.23 0.23 77 1014.7
20260503015421 4 273 0.0 0.0 0.00 0.23 0.23 77 1014.7
20260503014847 4 273 0.0 0.0 0.00 0.23 0.23 77 1014.7
20260503014317 4 273 0.0 0.0 0.00 0.23 0.23 77 1014.7
20260503013747 4 273 0.0 0.0 0.00 0.23 0.23 77 1014.7
20260503013213 4 273 0.0 0.0 0.00 0.23 0.23 77 1014.8
20260503012648 4 273 0.0 0.0 0.00 0.23 0.23 77 1014.8
20260503012339 4 273 0.0 0.0 0.00 0.23 0.23 76 1014.8
20260503011805 5 273 0.0 0.0 0.00 0.23 0.23 76 1014.8
20260503011234 5 273 0.0 0.0 0.00 0.23 0.23 75 1014.7
20260503010445 5 273 0.0 0.0 0.00 0.23 0.23 75 1014.7